This is the latest recevied weather packets stored in our database for station/object LTAC. If no packets are shown the sender has not sent any weather packets the latest 1 day(s).
| Time | Temp. | Humidity | Pressure | Rain* | Wind** | Luminosity | Snow |
|---|---|---|---|---|---|---|---|
| 1777995004 | 12.22° C | 58% | 1013 hPa | - | 0.45 m/s, 260° | - | - |
| 1777994104 | 12.22° C | 58% | 1012 hPa | - | 4.02 m/s, 290° | - | - |
| 1777993205 | 12.22° C | 58% | 1012 hPa | - | 4.02 m/s, 290° | - | - |
| 1777992304 | 12.22° C | 58% | 1012 hPa | - | 3.58 m/s, 310° | - | - |
| 1777988704 | 12.78° C | 58% | 1012 hPa | - | 6.26 m/s, 280° | - | - |
| 1777986904 | 12.78° C | 54% | 1012 hPa | - | 3.58 m/s, 290° | - | - |
| 1777986004 | 12.78° C | 54% | 1012 hPa | - | 3.58 m/s, 290° | - | - |
| 1777985104 | 12.22° C | 58% | 1012 hPa | - | 3.58 m/s, 290° | - | - |
| 1777984205 | 12.22° C | 58% | 1012 hPa | - | 3.58 m/s, 290° | - | - |
| 1777982405 | 12.22° C | 62% | 1012 hPa | - | 0.45 m/s, 280° | - | - |
| 1777981503 | 12.22° C | 58% | 1012 hPa | - | 3.13 m/s, 300° | - | - |
| 1777980604 | 12.22° C | 58% | 1012 hPa | - | 3.13 m/s, 300° | - | - |
| 1777978804 | 12.22° C | 58% | 1012 hPa | - | 3.13 m/s, 280° | - | - |
| 1777977904 | 11.11° C | 62% | 1012 hPa | - | 2.24 m/s, 310° | - | - |
| 1777975205 | 11.11° C | 62% | 1012 hPa | - | 2.68 m/s, 280° | - | - |
| 1777974304 | 11.11° C | 62% | 1012 hPa | - | 2.24 m/s, 0° | - | - |
| 1777973405 | 11.11° C | 62% | 1012 hPa | - | 2.24 m/s, 0° | - | - |
| 1777972503 | 10° C | 66% | 1013 hPa | - | 2.24 m/s, 0° | - | - |
| 1777971605 | 10° C | 66% | 1013 hPa | - | 2.24 m/s, 0° | - | - |
| 1777969805 | 8.89° C | 66% | 1013 hPa | - | 1.34 m/s, 0° | - | - |
| 1777968904 | 8.89° C | 70% | 1013 hPa | - | 1.34 m/s, 280° | - | - |
| 1777968004 | 8.89° C | 70% | 1013 hPa | - | 1.34 m/s, 280° | - | - |
| 1777967104 | 7.78° C | 70% | 1013 hPa | - | 1.34 m/s, 0° | - | - |
| 1777966204 | 7.78° C | 70% | 1013 hPa | - | 1.34 m/s, 0° | - | - |
| 1777964405 | 6.11° C | 70% | 1013 hPa | - | 1.34 m/s, 0° | - | - |
* Rain since midnight (hover to see other rain measurements)
** Current wind speed in m/s (hover to see current wind gust speed)